Simultaneous Nadir Overpasses (SNOs) Predictions

Prediction of SNOs between GOES-16 and NOAA-19 Satellite Orbit:

Table of predicted SNOs for the next 14.0 days since TLE Epoch: 7/5/2019
Index Date Time (GOES-16) GOES-16 Lat,Lon NOAA-19 Lat,Lon Distance(km) Time Diff (sec)
1 07/07/2019 10:15:56 -0.02, -75.20 0.76, -78.62 390.57 80
2 07/08/2019 10:04:19 -0.02, -75.21 0.09, -75.79 65.91 80
3 07/09/2019 09:50:00 -0.02, -75.21 -0.52, -72.94 259.09 80
4 07/11/2019 22:13:49 0.02, -75.23 -0.62, -77.95 309.95 80
5 07/12/2019 21:59:32 0.02, -75.25 0.07, -75.11 15.64 80
6 07/13/2019 21:47:53 0.02, -75.26 0.70, -72.27 341.18 80
7 07/16/2019 10:11:41 -0.03, -75.30 0.46, -77.27 225.41 80
8 07/17/2019 09:57:23 -0.03, -75.32 -0.22, -74.43 100.65 80
9 07/18/2019 09:45:46 -0.03, -75.33 -0.90, -71.60 426.84 80




NCC Satellite Simultaneous Nadir Overpasses (SNOs) Prediction Service
